Miscellaneous Local Product
Issued by NWS North Platte, NE

Home | Current Version | Previous Version | Graphics & Text | Print | Product List | Glossary On
Versions: 1 2 3 4 5 6 7 8 9 10 11 12 13 14 15 16 17 18 19 20 21 22 23 24 25 26 27 28 29 30 31 32 33 34 35 36 37 38 39 40 41 42 43 44 45 46 47 48 49 50
000
AXUS43 KLBF 232110
MISLBF


WESTERN AND NORTH CENTRAL NEBRASKA HOURLY WEATHER ROUNDUP
NATIONAL WEATHER SERVICE NORTH PLATTE NE
300 PM CST TUE DEC 23 2014

***STATIONS NOT REPORTING VARIABLES SUCH AS SKY/WEATHER OR
PRESSURE ARE PROVIDED BY THE NEBRASKA DEPARTMENT OF
ROADS...RAWS...AND APRS NETWORKS...AND ARE NOT UNDER
NATIONAL WEATHER SERVICE QUALITY CONTROL***

...OBSERVATIONS IN AND NEAR THE EASTERN PANHANDLE OF NEBRASKA...

CITY           SKY/WX    TMP DP  RH WIND       PRES   REMARKS
PINE RIDGE     MIX PCPN  31  22  69 N20G30    30.10R WCI  19
CHADRON        CLOUDY    30  25  81 SW3       30.11S
ALLIANCE       CLOUDY    29  24  82 N18G28    30.08R WCI  16
SIDNEY         CLOUDY    30  20  66 N28G40    30.07S WCI  15
WHITECLAY        N/A     29  21  71 W23         N/A  WCI  15
CRESCENT LAKE    N/A     29  22  75 N24G35      N/A  WCI  15
LISCO            N/A     33  21  61 W18         N/A  WCI  22
BIG SPRINGS      N/A     32  24  73 N23         N/A  WCI  19
$$

...OBSERVATIONS IN NORTH CENTRAL NEBRASKA...

CITY           SKY/WX    TMP DP  RH WIND       PRES   REMARKS
VALENTINE      CLOUDY    28  23  81 NW20G36   30.03R WCI  15
THEDFORD       CLOUDY    30  25  82 NW26G32   30.00R WCI  16
AINSWORTH      CLOUDY    28  24  86 N25G37    29.99R FOG     WCI  13
O`NEILL        CLOUDY    32  31  96 NW22G30   29.93R WCI  20
ORD            CLOUDY    32  26  78 N25G37    29.92R WCI  19
BROKEN BOW     LGT SNOW  31  25  78 N28G45    29.94R WCI  17
BROWNLEE         N/A     28  23  82 N32         N/A  WCI  11
SPRINGVIEW       N/A     29  25  84 NW20G29     N/A  WCI  16
BREWSTER         N/A     32  27  80 S26         N/A  WCI  18
ROSE             N/A     32  30  93 SW23        N/A  WCI  19
SARGENT          N/A     31  27  84 NW9G17      N/A  WCI  23
COMSTOCK         N/A     35  30  81 S23         N/A  WCI  23
CHAMBERS         N/A     32  28  83 N13G22      N/A  WCI  22
EWING            N/A     32  32  99 CALM        N/A
$$

...OBSERVATIONS IN SOUTHWEST NEBRASKA AND FAR NORTHEAST COLORADO...

CITY           SKY/WX    TMP DP  RH WIND       PRES   REMARKS
WRAY           LGT SNOW  32  28  86 NW22G31   30.04S WCI  19
HOLYOKE        FAIR      34  25  69 N24G39    30.05R WCI  21
IMPERIAL       LGT SNOW  31  22  69 N30G46    30.02R WCI  16
OGALLALA       CLOUDY    32  24  73 N29G39    30.04R WCI  18
NORTH PLATTE   CLOUDY    31  23  72 N21G35    29.99R WCI  18
MCCOOK         CLOUDY    33  25  72 N24G36    29.98R WCI  20
LEXINGTON      CLOUDY    32  27  79 N30       29.96R WCI  18
PAXTON           N/A     32  26  78 NW16        N/A  WCI  21
BRADY            N/A     30  24  77 NE5G12      N/A  WCI  25
GOTHENBURG       N/A     32  25  74 NW17        N/A  WCI  21
CALLAWAY         N/A     29  27  92 N20         N/A  WCI  16
$$

...NORTH PLATTE AREA...

CITY           SKY/WX    TMP DP  RH WIND       PRES   REMARKS
AIRPORT        CLOUDY    31  23  72 N21G35    29.99R WCI  18
DOWNTOWN         N/A     31  24  75 NW9G24      N/A  WCI  23
$$

...SOME WEATHER OBSERVATIONS FROM AROUND THE REGION...

CITY           SKY/WX    TMP DP  RH WIND       PRES   REMARKS
DENVER         MOSUNNY   34  12  40 N32G43    30.09R WCI  20
LARAMIE        MOSUNNY   21   8  57 NW26G35   30.10R WCI   4
CHEYENNE       CLOUDY    28  13  53 NW23G40   30.08S WCI  14
SCOTTSBLUFF    PTSUNNY   34  21  59 NW31G38   30.12S WCI  20
RAPID CITY     CLOUDY    31  22  69 NW25G35   30.11S WCI  17
PIERRE         FLURRIES  30  25  81 NW24      30.04R WCI  16
WINNER         LGT SNOW  30  26  85 NW25G32   30.02R FOG     WCI  16
SIOUX FALLS    CLOUDY    37  34  89 N24G32    29.83R WCI  26
OMAHA          LGT SNOW  36  34  92 N18       29.79R FOG     WCI  26
GRAND ISLAND   CLOUDY    35  30  82 N25G40    29.88R WCI  23
KANSAS CITY    CLOUDY    38  32  79 W9        29.73R WCI  31
WICHITA        DRIZZLE   38  31  76 NW14      29.82R WCI  30
HAYS           CLOUDY    34  23  64 N25G33    29.89R WCI  21
LIBERAL        CLOUDY    34  25  69 NW23G30   29.95R WCI  22
GOODLAND       CLOUDY    31  24  75 N35G48    29.98R WCI  15
$$



USA.gov is the U.S. government's official web portal to all federal, state and local government web resources and services.